| time (UTC) | temp C | wind direction | speed KPH | gust KPH | rain 1hr cm | rain 24hr cm | rain mn cm | humidity % | barometer mb |
| 20260904074536 | 24 | 136 | 1.6 | 4.8 | 0.00 | 0.00 | 0.00 | 55 | 1025.5 |
| 20260904073020 | 23 | 142 | 1.6 | 4.8 | 0.00 | 0.00 | 0.00 | 57 | 1025.4 |
| 20260904071516 | 22 | 136 | 0.0 | 1.6 | 0.00 | 0.00 | 0.00 | 60 | 1025.3 |
| 20260904070023 | 21 | 137 | 0.0 | 1.6 | 0.00 | 0.00 | 0.00 | 64 | 1025.3 |
| 20260904064516 | 20 | 137 | 0.0 | 0.0 | 0.00 | 0.00 | 0.00 | 68 | 1025.2 |
| 20260904063045 | 18 | 138 | 0.0 | 0.0 | 0.00 | 0.00 | 0.00 | 72 | 1025.1 |
| 20260904061555 | 18 | 138 | 0.0 | 0.0 | 0.00 | 0.00 | 0.00 | 76 | 1025.1 |
| 20260904060023 | 17 | 134 | 0.0 | 4.8 | 0.00 | 0.00 | 0.00 | 77 | 1025.1 |
| 20260904054516 | 17 | 136 | 3.2 | 6.4 | 0.00 | 0.00 | 0.00 | 77 | 1024.9 |
| 20260904053056 | 16 | 136 | 3.2 | 6.4 | 0.00 | 0.00 | 0.00 | 79 | 1024.9 |
| 20260904051524 | 16 | 123 | 0.0 | 11.3 | 0.00 | 0.00 | 0.00 | 80 | 1024.8 |
| 20260904050052 | 16 | 117 | 3.2 | 6.4 | 0.00 | 0.00 | 0.00 | 77 | 1024.7 |
| 20260904044525 | 16 | 117 | 0.0 | 6.4 | 0.00 | 0.00 | 0.00 | 75 | 1024.7 |
| 20260904043032 | 16 | 118 | 1.6 | 6.4 | 0.00 | 0.00 | 0.00 | 78 | 1024.6 |
| 20260904041519 | 16 | 119 | 0.0 | 0.0 | 0.00 | 0.00 | 0.00 | 75 | 1024.6 |
| 20260904040031 | 16 | 118 | 0.0 | 0.0 | 0.00 | 0.00 | 0.00 | 73 | 1024.5 |
| 20260904034519 | 16 | 118 | 0.0 | 0.0 | 0.00 | 0.00 | 0.00 | 73 | 1024.5 |
| 20260904033028 | 16 | 118 | 0.0 | 0.0 | 0.00 | 0.00 | 0.00 | 74 | 1024.5 |
| 20260904031522 | 16 | 118 | 0.0 | 0.0 | 0.00 | 0.00 | 0.00 | 74 | 1024.4 |
| 20260904030029 | 17 | 118 | 0.0 | 1.6 | 0.00 | 0.00 | 0.00 | 74 | 1024.4 |
| 20260904024523 | 17 | 118 | 0.0 | 1.6 | 0.00 | 0.00 | 0.00 | 74 | 1024.5 |
| 20260904023051 | 17 | 119 | 0.0 | 1.6 | 0.00 | 0.00 | 0.00 | 75 | 1024.4 |
| 20260904021518 | 17 | 119 | 0.0 | 0.0 | 0.00 | 0.00 | 0.00 | 75 | 1024.4 |
| 20260904020026 | 17 | 119 | 0.0 | 3.2 | 0.00 | 0.00 | 0.00 | 74 | 1024.3 |
| 20260904014520 | 17 | 121 | 0.0 | 1.6 | 0.00 | 0.00 | 0.00 | 74 | 1024.3 |
| 20260904013023 | 18 | 122 | 0.0 | 0.0 | 0.00 | 0.00 | 0.00 | 75 | 1024.4 |
| 20260904011516 | 18 | 122 | 0.0 | 1.6 | 0.00 | 0.00 | 0.00 | 75 | 1024.2 |
| 20260904010020 | 18 | 122 | 0.0 | 1.6 | 0.00 | 0.00 | 0.00 | 74 | 1024.0 |
| 20260904004534 | 18 | 121 | 0.0 | 0.0 | 0.00 | 0.00 | 0.00 | 74 | 1024.1 |
| 20260904003022 | 18 | 124 | 0.0 | 1.6 | 0.00 | 0.00 | 0.00 | 74 | 1024.1 |
| 20260904001534 | 19 | 125 | 0.0 | 0.0 | 0.00 | 0.00 | 0.00 | 73 | 1024.1 |
| 20260904000019 | 19 | 126 | 0.0 | 0.0 | 0.00 | 0.00 | 0.00 | 72 | 1024.3 |
| 20260903234553 | 20 | 128 | 0.0 | 0.0 | 0.00 | 0.00 | 0.00 | 72 | 1024.1 |
| 20260903233022 | 20 | 130 | 0.0 | 1.6 | 0.00 | 0.00 | 0.00 | 73 | 1024.2 |
| 20260903231515 | 20 | 130 | 1.6 | 4.8 | 0.00 | 0.00 | 0.00 | 72 | 1024.1 |
| 20260903230023 | 20 | 130 | 0.0 | 8.0 | 0.00 | 0.00 | 0.00 | 72 | 1024.0 |
| 20260903224520 | 20 | 130 | 0.0 | 6.4 | 0.00 | 0.00 | 0.00 | 72 | 1024.0 |
| 20260903223030 | 20 | 131 | 3.2 | 8.0 | 0.00 | 0.00 | 0.00 | 70 | 1023.9 |
| 20260903221543 | 21 | 131 | 4.8 | 6.4 | 0.00 | 0.00 | 0.00 | 70 | 1023.8 |
| 20260903220035 | 21 | 132 | 0.0 | 0.0 | 0.00 | 0.00 | 0.00 | 70 | 1023.8 |
| 20260903214524 | 21 | 132 | 0.0 | 4.8 | 0.00 | 0.00 | 0.00 | 69 | 1023.9 |
| 20260903213051 | 21 | 130 | 0.0 | 4.8 | 0.00 | 0.00 | 0.00 | 68 | 1023.9 |
| 20260903211524 | 22 | 131 | 0.0 | 1.6 | 0.00 | 0.00 | 0.00 | 67 | 1023.8 |
| 20260903210029 | 22 | 131 | 0.0 | 0.0 | 0.00 | 0.00 | 0.00 | 67 | 1023.7 |
| 20260903204518 | 22 | 132 | 0.0 | 1.6 | 0.00 | 0.00 | 0.00 | 66 | 1023.7 |
| 20260903203051 | 22 | 132 | 0.0 | 3.2 | 0.00 | 0.00 | 0.00 | 65 | 1023.6 |
| 20260903201541 | 23 | 130 | 0.0 | 1.6 | 0.00 | 0.00 | 0.00 | 64 | 1023.5 |
| 20260903200048 | 23 | 130 | 0.0 | 1.6 | 0.00 | 0.00 | 0.00 | 63 | 1023.5 |
| 20260903194522 | 23 | 130 | 0.0 | 3.2 | 0.00 | 0.00 | 0.00 | 63 | 1023.4 |
| 20260903193030 | 24 | 131 | 0.0 | 1.6 | 0.00 | 0.00 | 0.00 | 62 | 1023.3 |
| 20260903191539 | 24 | 130 | 0.0 | 4.8 | 0.00 | 0.00 | 0.00 | 62 | 1023.0 |
| 20260903190028 | 24 | 131 | 1.6 | 11.3 | 0.00 | 0.00 | 0.00 | 62 | 1022.9 |
| 20260903184523 | 25 | 132 | 1.6 | 14.5 | 0.00 | 0.00 | 0.00 | 62 | 1022.6 |
| 20260903183029 | 25 | 132 | 3.2 | 12.9 | 0.00 | 0.00 | 0.00 | 61 | 1022.5 |
| 20260903181523 | 25 | 130 | 3.2 | 14.5 | 0.00 | 0.00 | 0.00 | 59 | 1022.2 |
| 20260903180029 | 26 | 130 | 3.2 | 11.3 | 0.00 | 0.00 | 0.00 | 58 | 1021.9 |
| 20260903174534 | 27 | 118 | 1.6 | 11.3 | 0.00 | 0.00 | 0.00 | 55 | 1021.7 |
| 20260903173021 | 27 | 117 | 4.8 | 12.9 | 0.00 | 0.00 | 0.00 | 54 | 1021.5 |
| 20260903171533 | 28 | 117 | 1.6 | 4.8 | 0.00 | 0.00 | 0.00 | 52 | 1021.5 |
| 20260903170020 | 28 | 119 | 1.6 | 6.4 | 0.00 | 0.00 | 0.00 | 51 | 1021.3 |
| 20260903164515 | 28 | 119 | 1.6 | 9.7 | 0.00 | 0.00 | 0.00 | 50 | 1021.1 |
| 20260903163023 | 28 | 116 | 1.6 | 11.3 | 0.00 | 0.00 | 0.00 | 47 | 1021.0 |
| 20260903161515 | 28 | 115 | 3.2 | 11.3 | 0.00 | 0.00 | 0.00 | 46 | 1021.0 |
| 20260903160027 | 29 | 116 | 3.2 | 11.3 | 0.00 | 0.00 | 0.00 | 45 | 1020.9 |
| 20260903154535 | 30 | 115 | 3.2 | 12.9 | 0.00 | 0.00 | 0.00 | 43 | 1020.9 |
| 20260903153057 | 30 | 115 | 4.8 | 12.9 | 0.00 | 0.00 | 0.00 | 37 | 1020.7 |
| 20260903151556 | 31 | 140 | 1.6 | 11.3 | 0.00 | 0.00 | 0.00 | 34 | 1020.7 |
| 20260903150024 | 31 | 116 | 4.8 | 12.9 | 0.00 | 0.00 | 0.00 | 33 | 1020.7 |
| 20260903144531 | 31 | 115 | 6.4 | 12.9 | 0.00 | 0.00 | 0.00 | 35 | 1020.8 |
| 20260903143033 | 31 | 115 | 4.8 | 20.9 | 0.00 | 0.00 | 0.00 | 34 | 1020.8 |
| 20260903141526 | 32 | 143 | 4.8 | 14.5 | 0.00 | 0.00 | 0.00 | 32 | 1020.8 |
| 20260903140035 | 32 | 201 | 4.8 | 8.0 | 0.00 | 0.00 | 0.00 | 31 | 1020.8 |
| 20260903134525 | 31 | 202 | 9.7 | 16.1 | 0.00 | 0.00 | 0.00 | 32 | 1020.8 |
| 20260903133034 | 31 | 198 | 8.0 | 12.9 | 0.00 | 0.00 | 0.00 | 32 | 1020.9 |
| 20260903131522 | 31 | 193 | 4.8 | 12.9 | 0.00 | 0.00 | 0.00 | 33 | 1021.3 |
| 20260903130052 | 32 | 177 | 9.7 | 14.5 | 0.00 | 0.00 | 0.00 | 33 | 1021.4 |
| 20260903124524 | 31 | 165 | 1.6 | 12.9 | 0.00 | 0.00 | 0.00 | 33 | 1021.5 |
| 20260903123054 | 32 | 144 | 1.6 | 8.0 | 0.00 | 0.00 | 0.00 | 33 | 1021.6 |
| 20260903121523 | 31 | 139 | 1.6 | 8.0 | 0.00 | 0.00 | 0.00 | 33 | 1021.6 |
| 20260903120029 | 31 | 138 | 0.0 | 9.7 | 0.00 | 0.00 | 0.00 | 33 | 1021.6 |
| 20260903114520 | 30 | 161 | 0.0 | 12.9 | 0.00 | 0.00 | 0.00 | 34 | 1021.8 |
| 20260903113028 | 30 | 140 | 6.4 | 16.1 | 0.00 | 0.00 | 0.00 | 34 | 1021.8 |
| 20260903111525 | 30 | 111 | 0.0 | 4.8 | 0.00 | 0.00 | 0.00 | 35 | 1022.0 |
| 20260903110030 | 30 | 115 | 3.2 | 6.4 | 0.00 | 0.00 | 0.00 | 34 | 1022.2 |
| 20260903104519 | 30 | 118 | 0.0 | 6.4 | 0.00 | 0.00 | 0.00 | 36 | 1022.3 |
| 20260903103032 | 30 | 134 | 3.2 | 8.0 | 0.00 | 0.00 | 0.00 | 37 | 1022.4 |
| 20260903101515 | 29 | 137 | 3.2 | 12.9 | 0.00 | 0.00 | 0.00 | 38 | 1022.6 |
| 20260903100045 | 28 | 138 | 1.6 | 14.5 | 0.00 | 0.00 | 0.00 | 43 | 1022.8 |
| 20260903094517 | 28 | 132 | 1.6 | 11.3 | 0.00 | 0.00 | 0.00 | 45 | 1023.0 |
| 20260903093027 | 28 | 138 | 3.2 | 14.5 | 0.00 | 0.00 | 0.00 | 47 | 1023.1 |
| 20260903091556 | 28 | 130 | 1.6 | 6.4 | 0.00 | 0.00 | 0.00 | 47 | 1023.2 |
| 20260903090023 | 27 | 130 | 1.6 | 9.7 | 0.00 | 0.00 | 0.00 | 49 | 1023.3 |
| 20260903084532 | 26 | 107 | 1.6 | 6.4 | 0.00 | 0.00 | 0.00 | 51 | 1023.2 |
| 20260903083030 | 26 | 107 | 0.0 | 3.2 | 0.00 | 0.00 | 0.00 | 53 | 1023.1 |
| 20260903081526 | 25 | 107 | 0.0 | 4.8 | 0.00 | 0.00 | 0.00 | 54 | 1023.1 |
| 20260903080055 | 25 | 100 | 0.0 | 3.2 | 0.00 | 0.00 | 0.00 | 56 | 1023.1 |